Regional Weather Roundup
Issued by NWS

Home | Current Version | Previous Version | Text Only | Print | Product List | Glossary Off
Versions: 1 2 3 4 5 6 7 8 9 10 11 12 13 14 15 16 17 18 19 20 21 22 23 24 25 26 27

000
ASUS45 KSLC 261710
RWRUT

UTAH REGIONAL WEATHER ROUNDUP
NATIONAL WEATHER SERVICE SALT LAKE CITY UT
1100 AM MDT FRI AUG 26 2016

UTZ001>011-023>025-261800-

NORTHERN UTAH

CITY           SKY/WX    TMP DP  RH WIND       PRES   REMARKS
BRIGHAM CITY     N/A     73  32  22 S6        30.06S
HILL AFB       SUNNY     73  40  30 SE8       30.07S
LOGAN          MOSUNNY   67  35  30 VRB5      30.07S
OGDEN          SUNNY     75  40  28 S15       30.05S
PROVO AIRPORT  MOSUNNY   75  43  31 E7        30.08F
SALT LAKE CITY PTSUNNY   79  40  24 S15G23    30.03S
VERNAL         SUNNY     63  43  48 VRB3      30.19F
WENDOVER       SUNNY     72  32  23 SE5       30.06S
HEBER CITY     SUNNY     68  39  34 CALM      30.12S
WEST JORDAN    SUNNY     73  42  32 SE17G23   30.07S

$$

UTZ012>022-026-027-261800-

SOUTHERN/CENTRAL UTAH

CITY           SKY/WX    TMP DP  RH WIND       PRES   REMARKS
BLANDING       MOSUNNY   63  49  60 SE5       30.34F
BRYCE CANYON   SUNNY     62  46  55 SE9       30.32S
CEDAR CITY     SUNNY     71  49  45 SW17G26   30.16F
MILFORD        SUNNY     72  46  39 S24G32    30.11F
MOAB/CYNLANDS  SUNNY     69  48  47 VRB3      30.17F
PRICE          SUNNY     63  44  50 S6        30.23S
ST GEORGE      SUNNY     81  52  36 NE7       30.08F

$$

REGIONAL REPORTS     COLORADO/ARIZONA

CITY           SKY/WX    TMP DP  RH WIND       PRES   REMARKS
CRAIG, CO      SUNNY     67  39  35 N3        30.22F
GRAND JUNCTION SUNNY     66  47  50 E6        30.20F
RIFLE          SUNNY     62  50  64 CALM      30.23F
MONTROSE       SUNNY     64  47  53 W3        30.25F
CORTEZ         SUNNY     64  51  62 CALM      30.27F
PAGE, AZ         N/A     71  55  56 VRB7      30.17F
GRAND CANYON   PTSUNNY   64  48  56 E10       30.31R
KINGMAN        SUNNY     83  53  35 SE18      30.07S
FLAGSTAFF      MOSUNNY   61  50  67 SE3       30.33S

$$

REGIONAL REPORTS    NEVADA/IDAHO/WYOMING

CITY           SKY/WX    TMP DP  RH WIND       PRES   REMARKS
LAS VEGAS, NV  MOSUNNY   86  48  26 VRB3      29.95R
ELY            SUNNY     70  37  29 VRB5      30.16S
ELKO           SUNNY     66  21  18 CALM      30.11S
POCATELLO, ID  PTSUNNY   63  35  35 SW8       30.07S
BURLEY         SUNNY     64  39  39 MISG      30.05S
EVANSTON, WY   MOSUNNY   65  32  29 SW13      30.19F
ROCK SPRINGS   SUNNY     62  35  36 VRB3      30.20F

$$




USA.gov is the U.S. government's official web portal to all federal, state and local government web resources and services.